Location: Caltech
(34.1382°N, 118.1253°W)
Time: 04:27:21
(UTC-08:00)

Lacrosse 5 - Visible Passes

Search period start: 30 January 2015 00:00
Search period end: 09 February 2015 00:00
Orbit: 715 x 723 km, 57.0° (Epoch: 24 January)

Date Brightness Start Highest point End Pass type
(mag) Time Alt. Az. Time Alt. Az. Time Alt. Az.
04 Feb 4.4 06:11:26 10° NNE 06:12:42 11° NNE 06:14:07 10° NE visible
06 Feb 4.1 06:06:19 10° N 06:09:35 17° NE 06:12:58 10° ENE visible
07 Feb 4.5 05:14:35 10° NNE 05:15:43 11° NNE 05:17:01 10° NE visible
08 Feb 3.6 06:02:00 10° NNW 06:06:20 28° NE 06:10:41 10° E visible
